Tracking 27107 objects as of 22-Mar-2023
HD Live streaming from Space Station
objects crossing your sky now

IRIDIUM 148

Track IRIDIUM 148 now!
10-day predictions
IRIDIUM 148 is classified as:


NORAD ID: 43255
Int'l Code: 2018-030I
Perigee: 783.0 km
Apogee: 786.6 km
Inclination: 86.4 °
Period: 100.4 minutes
Semi major axis: 7155 km
RCS: Unknown
Launch date: March 30, 2018
Source: United States (US)
Launch site: AIR FORCE WESTERN TEST RANGE (AFWTR)
Your satellite tracking list
Your tracking list is empty




NASA's NSSDC Master Catalog

Two Line Element Set (TLE):
1 43255U 18030G   23080.86771956  .00000228  00000-0  74171-4 0  9999
2 43255  86.3937  64.9928 0002456  87.9691 272.1786 14.34220174260562
Source of the keplerian elements: AFSPC